Location: Lane
(33.5226°N, 79.8788°W)
Time: 19:39:21
(UTC+00:00)

Explorer 11/Cluster Stage 4 - Pass Details

Date: 09 October 2022
Orbit: 466 x 1247 km, 28.8° (Epoch: 01 December)

Event Time Altitude Azimuth Distance (km) Brightness Sun altitude
Rises 16:00:14 0° 262° (W) 4,071 10.1 47.0°
Reaches altitude 10° 16:03:04 10° 259° (W) 3,160 9.7 47.3°
Maximum altitude 16:11:04 63° 181° (S) 1,367 9.5 47.9°
Drops below altitude 10° 16:18:57 10° 102° (ESE) 3,115 10.1 48.5°
Sets 16:21:43 0° 99° (E) 4,009 10.4 48.6°
